Location: Fredericksburg
(30.2750°N, 98.8720°W)
Time: 13:44:12
(UTC-05:00)

ISS - All Passes

Search period start: 27 August 2016 00:00
Search period end: 06 September 2016 00:00
Orbit: 402 x 406 km, 51.6° (Epoch: 27 August)

Date Brightness Start Highest point End Pass type
(mag) Time Alt. Az. Time Alt. Az. Time Alt. Az.
27 Aug - 08:15:03 10° S 08:17:30 20° SE 08:20:00 10° ENE daylight
27 Aug - 09:51:07 10° W 09:53:51 24° NW 09:56:36 10° NNE daylight
27 Aug - 16:23:11 10° NNW 16:25:46 21° NE 16:28:19 10° E daylight
27 Aug - 17:59:26 10° WNW 18:02:09 24° SW 18:04:52 10° S daylight
28 Aug - 08:58:08 10° WSW 09:01:20 51° NW 09:04:33 10° NE daylight
28 Aug - 15:31:51 10° N 15:33:07 12° NNE 15:34:23 10° ENE daylight
28 Aug - 17:06:36 10° NW 17:09:50 58° SW 17:13:02 10° SSE daylight
29 Aug - 08:05:41 10° SW 08:08:54 63° SE 08:12:09 10° NE daylight
29 Aug - 09:44:35 10° NW 09:45:39 11° NNW 09:46:43 10° NNW daylight
29 Aug - 16:14:11 10° NW 16:17:24 55° NE 16:20:37 10° SE daylight
30 Aug - 07:13:46 10° S 07:16:33 26° SE 07:19:20 10° ENE daylight
30 Aug - 08:50:29 10° W 08:52:59 20° NW 08:55:28 10° NNE daylight
30 Aug - 15:22:04 10° NNW 15:24:52 26° NE 15:27:40 10° E daylight
30 Aug - 16:58:48 10° W 17:01:11 19° SW 17:03:32 10° S daylight
31 Aug - 06:23:00 10° SSE 06:24:15 12° SE 06:25:30 10° ESE visible
31 Aug - 07:57:19 10° WSW 08:00:24 39° NW 08:03:30 10° NNE daylight
31 Aug - 14:30:23 10° N 14:32:13 14° NE 14:34:04 10° ENE daylight
31 Aug - 16:05:42 10° WNW 16:08:50 43° SW 16:11:56 10° SSE daylight
01 Sep - 07:04:39 10° SW 07:07:54 86° SE 07:11:10 10° NE daylight
01 Sep - 15:13:07 10° NW 15:16:24 75° NE 15:19:39 10° SE daylight
02 Sep - 06:12:29 10° SSW 06:15:28 34° SE 06:18:28 10° ENE visible
02 Sep - 07:49:50 10° WNW 07:52:00 16° NW 07:54:10 10° N daylight
02 Sep - 14:20:51 10° NNW 14:23:51 32° NE 14:26:50 10° ESE daylight
02 Sep - 15:58:12 10° W 16:00:04 14° SW 16:01:56 10° SSW daylight
03 Sep - 05:21:08 10° SSE 05:23:07 15° SE 05:25:06 10° E visible
03 Sep - 06:56:25 10° WSW 06:59:20 30° NW 07:02:18 10° NNE daylight
03 Sep - 13:28:58 10° N 13:31:12 17° NE 13:33:27 10° E daylight
03 Sep - 15:04:45 10° WNW 15:07:43 32° SW 15:10:40 10° SSE daylight
04 Sep - 06:03:32 10° SW 06:06:46 71° NW 06:10:02 10° NE visible
04 Sep - 14:11:59 10° NW 14:15:16 81° SW 14:18:31 10° SE daylight
05 Sep - 05:11:10 10° SSW 05:14:17 45° SE 05:17:25 10° ENE visible
05 Sep - 06:49:11 10° WNW 06:50:55 14° NW 06:52:40 10° N visible
05 Sep - 13:19:36 10° NNW 13:22:43 41° NE 13:25:50 10° ESE daylight
05 Sep - 14:57:49 10° WSW 14:58:50 11° SW 14:59:52 10° SW daylight
